GOES 14 1 35491U 09033A 26106.59376257 .00000006 00000+0 00000+0 0 9990 2 35491 1.5304 83.7570 0001638 303.5722 207.4913 1.00114302 5976 EWS-G2 (GOES 15) 1 36411U 10008A 26106.51225572 .00000030 00000+0 00000+0 0 9999 2 36411 1.1134 84.0036 0003600 22.9450 345.3850 1.00271470 59025 GOES 16 1 41866U 16071A 26106.56232919 -.00000084 00000+0 00000+0 0 9993 2 41866 0.1865 84.9634 0001640 244.7306 332.7601 1.00271537 34485 GOES 17 1 43226U 18022A 26106.41502998 -.00000175 00000+0 00000+0 0 9995 2 43226 0.7784 86.5673 0000848 263.2684 274.6532 1.00271222 29806 GOES 18 1 51850U 22021A 26106.62447513 .00000000 00000+0 00000+0 0 9991 2 51850 0.0170 75.0012 0000370 19.1020 198.4730 1.00272014 5977 GOES 19 1 60133U 24119A 26106.40947803 -.00000242 00000+0 00000+0 0 9997 2 60133 0.0134 40.3184 0000540 40.0213 196.4392 1.00271889 6345